DiskSat-1

operational
NORAD ID: 67219 Int'l Des: 2025-305 Owner: STP Country: US
LEOCIRCULAR

About DiskSat-1

Description loading...

Live Position

Loading 3D Globe...

Upcoming Passes

Altitude History

Altitude vs Time

uPlot chart will show altitude changes over time

Two-Line Element Set

1 67219U 25305A 25352.25791200 .00000705 00000-0 64033-4 0 9995
2 67219 45.0103 321.2665 0004355 276.2808 83.7571 15.05868419 14
Epoch: Dec 18, 2025 • Age: 36 hours

Current Status

Altitude 549.8 km
Velocity 7.59 km/s
Sub-Earth Point -2.51°S, 136.87°E
Launch Date Dec 18, 2025
Age 1 days
Type other

Technical Details

Classification Payload
Mass 3.00 kg
Dry Mass 3.00 kg
Total Mass 3.00 kg
Length 0.03 m
Diameter 1.00 m
Span 1.00 m
Shape Cyl
Manufacturer AERO
Bus Type DiskSat
Phase Status In Orbit
Owner/State STP/US

Large Constellations

Loading constellations...